Regional Weather Roundup
Issued by NWS Memphis, TN

Home | Current Version | Previous Version | Text Only | Print | Product List | Glossary On
Versions: 1 2 3 4 5 6 7 8 9 10 11 12 13 14 15 16 17 18 19 20 21 22 23 24 25 26 27 28 29 30 31 32 33 34 35 36 37 38 39 40 41 42 43 44 45 46 47 48 49 50
000
ASUS44 KMEG 111300
RWRMEG
MEMPHIS CWA HOURLY WEATHER ROUNDUP
NATIONAL WEATHER SERVICE MEMPHIS TN
800 AM CDT FRI JUL 11 2014

...WEST TENNESSEE...

CITY           SKY/WX    TMP DP  RH WIND       PRES   REMARKS
MEMPHIS INTL   PTSUNNY   81  64  56 SE6       30.15R
NWS MEMPHIS      N/A     77 N/A N/A MISG        N/A
JACKSON        SUNNY     74  68  81 CALM      30.16R
LEXINGTON      SUNNY     72  68  88 CALM      30.16R
DYERSBURG      MOSUNNY   75  63  64 CALM      30.17R
UNION CITY     SUNNY     73  66  78 CALM      30.16R


...EASTERN ARKANSAS...

CITY           SKY/WX    TMP DP  RH WIND       PRES   REMARKS
JONESBORO      PTSUNNY   76  70  82 CALM      30.15R
WEST MEMPHIS   CLOUDY    77  70  79 SE5       30.14R
BATESVILLE     PTSUNNY   73  72  94 CALM      30.16R
WALNUT RIDGE   MOSUNNY   73  70  88 NE3       30.15R
BLYTHEVILLE    CLOUDY    76  70  82 E6        30.15R
PINE BLUFF     PTSUNNY   75  71  87 CALM      30.15R
MONTICELLO     MOSUNNY   74  71  91 CALM      30.14R


...NORTH MISSISSIPPI...

CITY           SKY/WX    TMP DP  RH WIND       PRES   REMARKS
TUPELO         MOSUNNY   74  69  85 NE3       30.15R
CLARKSDALE     MOSUNNY   77  75  94 CALM      30.16R
GREENWOOD      CLOUDY    74  72  93 CALM      30.15R
COLUMBUS       PTSUNNY   75  73  93 NE3       30.14R
STARKVILLE     FAIR      73  72  94 CALM      30.14R
GOLDEN TRIANGL SUNNY     77  72  83 CALM      30.14R


...SOUTHEAST MISSOURI...

CITY           SKY/WX    TMP DP  RH WIND       PRES   REMARKS
DONIPHAN         N/A     70  65  83 E2          N/A
WEST PLAINS      N/A     70  64  81 E5        30.19R
POPLAR BLUFF   CLOUDY    72  65  78 CALM      30.16R
CAPE GIRARDEAU SUNNY     71  65  81 E3        30.18R


...NORTHWEST ALABAMA...

CITY           SKY/WX    TMP DP  RH WIND       PRES   REMARKS
MUSCLE SHOALS  SUNNY     74  69  85 CALM      30.17R


...MIDDLE TENNESSEE...

CITY           SKY/WX    TMP DP  RH WIND       PRES   REMARKS
NASHVILLE      MOSUNNY   76  64  66 CALM      30.19R
CLARKSVILLE    SUNNY     73  63  70 CALM      30.18R
COLUMBIA       SUNNY     72  68  88 CALM      30.16S


...WESTERN KENTUCKY...

CITY           SKY/WX    TMP DP  RH WIND       PRES   REMARKS
PADUCAH        SUNNY     75  68  78 E3        30.17R
FORT CAMPBELL  SUNNY     73  67  81 NE3       30.18R


...CENTRAL ARKANSAS...

CITY           SKY/WX    TMP DP  RH WIND       PRES   REMARKS
LITTLE ROCK    PTSUNNY   75  70  84 CALM      30.14R


SKY/WX REPORTED AS FAIR MEANS FEW OR NO CLOUDS BELOW
12 THOUSAND FEET.



USA.gov is the U.S. government's official web portal to all federal, state and local government web resources and services.